Showing default

HYPSO-1, 51053

Orbit data source: Space-Track

HYPSO-1, 51053 is a payload satellite owned by NTNU (NO) in SSO that was launched on Thu, 13 Jan 2022 UTC via an FALCON 9 launch vehicle from the Air Force Eastern Test Range (AFETR). Payload-class satellites include a variety of spacecraft equipped with specific instruments for various scientific and technological missions. These include communications satellites like Starlink; space stations such as the ISS; scientific satellites like the Hubble; Earth observation satellites from companies like Planet Labs, Umbra, and HawkEye 360; GPS; miniature CubeSats for education and research; and military/defense satellites.

Loading next visibility...
Identifier
51053, 2022-002BX
Orbit
SSO
Country
Flag of NONO / NOR
Related business
Manufacturer
NanoAvionics
Mission
Operational Amateur Imaging
Bus & Motor
CUBESAT 6U, Unknown motor
Mass
~10 kg wet, ~10 kg dry
Launch date (UTC)
2022-01-13 (4 years ago)
Launch vehicle
FALCON 9
Launch site
Air Force Eastern Test Range (AFETR)
Object type
Payload
Rocket body
Debris
Shape & HBR
Box + 2 Pan, 0.1 m
Radar Cross Section
0.080 m², Medium (>0.1 m² and < 1m²)

Expand to show TLE details & history
Last TLE update: 12 hours ago

TLE from 12 hours ago
0 HYPSO-1
1 51053U 22002BX  26072.64798203  .00048398  00000-0  57975-3 0  9994
2 51053  97.2923 150.2744 0002141 265.7328  94.3685 15.60812177231966
Epoch: 2026-03-13T15:33Z
TLE epoch observation values (Epoch: 2026-03-13T15:33:05.647Z)
Latitude
-0°
Longitude
105.72037°
Altitude
388.569 km
Speed
7.677 km/s
True Right ascension
10h 01m 05s
True Declination
0° 00' 00"
Sunlit
Object was in full shadow at epoch
Visualization orbit readout
Latitude
Unknown
Longitude
Unknown
Altitude
Unknown
Speed
Unknown
Apparent Right ascension
Unknown
Apparent Declination
Unknown
Sunlit
N/A
Visualization observer readout
Local Sidereal Time
07:39:17
Azimuth
Unknown
Elevation
Unknown
Doppler factor
Unknown
Orbital elements
Apogee altitude
383.664 km
Perigee altitude
380.769 km
Semi-major axis
6,760.354 km
Eccentricity
0.00021
Inclination
97.2923°
RAAN
150.2744°
Arg. of periapsis
265.7328°
True anomaly
94.39296°
Mean anomaly
94.3685°
Eccentric anomaly
94.38073°
Mean motion
3.90471 °/min
Orbital period
92.2 mins
BSTAR
0.00057975
Loading maneuver chart data...
Computing Atmospheric mass density...

Documentation

Showing up to 5 results
|